Location: Cazarilh
(42.9578°N, 0.5819°E)
Time: 00:09:58
(UTC+00:00)

Cosmos 405 - Pass Details

Date: 11 December 2019
Orbit: 451 x 467 km, 81.3° (Epoch: 17 January)

Event Time Altitude Azimuth Distance (km) Brightness Sun altitude
Exits shadow 06:20:52 - 349° (NNW) 2,468 6.3 -10.2°
Reaches altitude 10° 06:22:52 10° 348° (NNW) 1,626 5.4 -9.9°
Maximum altitude 06:26:25 80° 262° (W) 476 2.9 -9.3°
Drops below altitude 10° 06:29:55 10° 175° (S) 1,603 6.1 -8.7°
Sets 06:31:59 0° 174° (S) 2,469 7.1 -8.4°
